CDT,Max TemperatureF,Mean TemperatureF,Min TemperatureF,Max Dew PointF,MeanDew PointF,Min DewpointF,Max Humidity, Mean Humidity, Min Humidity, Max Sea Level PressureIn, Mean Sea Level PressureIn, Min Sea Level PressureIn, Max VisibilityMiles, Mean VisibilityMiles, Min VisibilityMiles, Max Wind SpeedMPH, Mean Wind SpeedMPH, Max Gust SpeedMPH,PrecipitationIn, CloudCover, Events, WindDirDegrees
2013-7-1,89,80,73,76,70,65,94,72,48,29.90,29.83,29.76,10,10,9,15,5,,0.00,5,,249
2013-7-2,88,78,70,73,70,68,97,75,61,30.01,29.96,29.89,10,10,9,13,4,17,0.00,4,,188
2013-7-3,84,78,73,75,73,71,100,88,70,30.03,29.99,29.96,10,9,3,17,8,24,0.30,7,Rain-Thunderstorm,84
2013-7-4,82,78,73,76,73,69,100,89,72,30.03,29.96,29.92,10,8,1,26,10,34,1.53,6,Rain-Thunderstorm,126
2013-7-5,79,74,69,74,72,68,100,89,82,30.11,30.05,30.00,10,8,0,17,10,20,1.31,7,Fog-Rain-Thunderstorm,169
2013-7-6,79,74,71,75,73,70,100,92,83,30.08,30.04,30.00,10,7,1,14,8,25,0.40,7,Rain,125
2013-7-7,84,78,73,77,75,72,97,88,79,30.13,30.09,30.04,10,10,2,13,6,,0.08,6,Rain,160
2013-7-8,84,78,75,77,76,74,100,94,77,30.19,30.14,30.10,10,9,4,7,2,,0.02,7,Rain-Thunderstorm,84
2013-7-9,87,78,71,77,73,72,100,90,67,30.20,30.15,30.10,10,6,0,12,1,,0.00,3,Fog,193
2013-7-10,89,80,72,77,74,71,100,86,59,30.12,30.06,29.99,10,10,4,17,4,21,0.09,5,Rain-Thunderstorm,279
2013-7-11,79,76,73,75,74,72,100,91,78,30.02,29.97,29.90,10,9,2,15,4,28,0.32,6,Rain-Thunderstorm,257
2013-7-12,87,78,73,76,74,67,100,84,67,29.94,29.90,29.86,10,10,8,18,3,28,0.00,4,Thunderstorm,281
2013-7-13,86,76,69,76,71,64,97,85,72,29.99,29.92,29.87,10,10,2,20,6,26,0.24,4,Rain-Thunderstorm,111
2013-7-14,86,77,70,75,72,68,94,82,63,30.04,29.98,29.91,10,10,10,13,5,17,0.00,2,Thunderstorm,81
2013-7-15,86,80,75,76,74,71,96,85,67,30.13,30.10,30.04,10,9,2,17,8,23,0.33,5,Rain-Thunderstorm,88
2013-7-16,86,80,75,75,73,72,94,81,67,30.19,30.14,30.09,10,10,10,21,13,29,0.00,5,Rain,77
2013-7-17,88,81,75,75,74,72,94,80,63,30.22,30.17,30.11,10,10,10,12,6,,0.00,2,,88
2013-7-18,87,80,73,76,73,70,96,80,61,30.14,30.09,30.01,10,10,10,12,5,,0.00,3,,85
2013-7-19,84,78,73,76,74,72,96,86,74,30.08,30.04,29.98,10,10,7,16,6,20,0.02,6,Rain-Thunderstorm,88
2013-7-20,87,80,75,78,75,73,96,87,72,30.03,29.98,29.94,10,9,2,16,6,23,0.28,5,Rain-Thunderstorm,204
2013-7-21,87,80,75,76,74,71,94,82,69,30.08,30.04,30.00,10,10,10,16,6,25,0.00,3,Rain-Thunderstorm,230
2013-7-22,87,78,71,80,74,70,100,90,74,30.11,30.05,30.01,10,7,0,24,8,36,1.52,6,Fog-Rain-Thunderstorm,244
2013-7-23,89,80,73,79,76,69,100,85,67,30.05,30.00,29.95,10,10,8,17,6,25,0.00,6,Rain-Thunderstorm,249
2013-7-24,89,80,71,77,75,70,94,80,65,29.96,29.92,29.88,10,10,3,16,6,29,0.14,6,Rain-Thunderstorm,286
2013-7-25,91,82,73,77,73,72,100,82,55,30.01,29.94,29.87,10,10,10,9,4,,0.00,4,Rain-Thunderstorm,312
2013-7-26,88,80,73,76,74,72,97,80,61,30.06,30.01,29.98,10,10,9,14,3,20,0.00,4,,225
2013-7-27,84,78,73,77,74,70,100,87,63,29.98,29.95,29.92,10,10,6,10,2,17,0.02,5,Rain-Thunderstorm,262
2013-7-28,86,80,73,77,74,71,100,89,69,30.01,29.94,29.89,10,8,2,16,8,21,0.82,6,Rain-Thunderstorm,211
2013-7-29,88,81,75,79,76,74,97,83,70,30.13,30.06,29.99,10,10,6,12,3,,0.00,4,Thunderstorm,177
2013-7-30,88,81,75,77,76,74,100,82,67,30.16,30.12,30.08,10,9,6,12,4,,0.00,4,Fog,186
2013-7-31,87,81,78,79,76,72,94,82,66,30.11,30.07,30.01,10,10,9,10,4,16,0.00,5,Rain-Thunderstorm-Tornado,235